Oelwein, IA

1:57 AM CST on December 09, 2019 (GMT -0600)
Oelwein Municipal

Weather History for KOLZ - October, 2019

Change the Weather History Date:

Thursday, October 17, 2019

  Actual Average Record
Temperature  
Mean Temperature 44 °F -  
Max Temperature 57 °F 60 °F 85 °F (1950)
Min Temperature 30 °F 38 °F 20 °F (1992)
Degree Days  
Heating Degree Days 22    
Moisture  
Dew Point 37 °F    
Average Humidity 81    
Maximum Humidity 100    
Minimum Humidity 44    
Precipitation  
Precipitation 0.00 in - - ()
Sea Level Pressure  
Sea Level Pressure 30.02 in    
Wind  
Wind Speed 3 mph (SSE)    
Max Wind Speed 9 mph    
Max Gust Speed -    
Visibility 9 miles    
Events Fog    
Averages and records for this station are not official NWS values.
T = Trace of Precipitation, MM = Missing Value Source: NWS Daily Summary

Daily Weather History Graph

Daily Weather History Graph

Search for Another Location

Airport or City:

Astronomy

Oct. 17, 2019 Rise Set
Actual Time 7:23 AM CDT 6:22 PM CDT
Civil Twilight 6:54 AM CDT 6:51 PM CDT
Nautical Twilight 6:21 AM CDT 7:23 PM CDT
Astronomical Twilight 5:49 AM CDT 7:56 PM CDT
Moon 8:50 PM CDT (10/17) 10:59 AM CDT (10/17)
Length of Visible Light 11h 56m
Length of Day
10h 59m
Waning Gibbous, 86% of the Moon is Illuminated
Oct 17
Waning Gibbous
Oct 21
Last Quarter
Oct 27
New
Nov 4
First Quarter
Nov 12
Full

Hourly Weather History & Observations

Time (CDT) Temp. Windchill Dew Point Humidity Pressure Visibility Wind Dir Wind Speed Gust Speed Precip Events Conditions
12:15 AM 39.2 °F - 39.2 °F 100% 30.07 in 10.0 mi Calm Calm - N/A   Overcast
12:35 AM 41.0 °F 39.0 °F 41.0 °F 100% 30.07 in 10.0 mi WSW 3.5 mph - N/A   Overcast
12:55 AM 41.0 °F 38.0 °F 41.0 °F 100% 30.08 in 10.0 mi West 4.6 mph - N/A   Overcast
1:15 AM 39.2 °F 35.9 °F 39.2 °F 100% 30.08 in 10.0 mi West 4.6 mph - N/A   Overcast
1:35 AM 37.4 °F - 37.4 °F 100% 30.07 in 10.0 mi Calm Calm - N/A   Mostly Cloudy
1:55 AM 37.4 °F 34.9 °F 37.4 °F 100% 30.06 in 10.0 mi SW 3.5 mph - N/A   Overcast
2:15 AM 39.2 °F - 39.2 °F 100% 30.06 in 10.0 mi Calm Calm - N/A   Overcast
2:35 AM 39.2 °F - 39.2 °F 100% 30.06 in 10.0 mi Calm Calm - N/A   Overcast
2:55 AM 37.4 °F - 37.4 °F 100% 30.06 in 10.0 mi Calm Calm - N/A   Overcast
3:15 AM 37.4 °F - 37.4 °F 100% 30.05 in 10.0 mi Calm Calm - N/A   Mostly Cloudy
3:55 AM 35.6 °F - 35.6 °F 100% 30.04 in 10.0 mi Calm Calm - N/A   Clear
4:15 AM 33.8 °F - 33.8 °F 100% 30.04 in 10.0 mi Calm Calm - N/A   Clear
4:35 AM 33.8 °F - 33.8 °F 100% 30.05 in 10.0 mi Calm Calm - N/A   Clear
4:55 AM 33.8 °F - 33.8 °F 100% 30.04 in 10.0 mi Calm Calm - N/A   Clear
5:15 AM 33.8 °F - 33.8 °F 100% 30.04 in 7.0 mi Calm Calm - N/A   Clear
5:35 AM 33.8 °F - 33.8 °F 100% 30.04 in 9.0 mi Calm Calm - N/A   Clear
5:55 AM 33.8 °F - 33.8 °F 100% 30.04 in 2.0 mi Calm Calm - N/A   Clear
6:15 AM 32.0 °F - 32.0 °F 100% 30.04 in 0.2 mi Calm Calm - N/A Fog Light Freezing Fog
6:35 AM 32.0 °F - 32.0 °F 100% 30.04 in 0.2 mi Calm Calm - N/A Fog Light Freezing Fog
6:55 AM 30.2 °F 26.7 °F 30.2 °F 100% 30.04 in 1.0 mi South 3.5 mph - N/A   Clear
7:15 AM 32.0 °F - 32.0 °F 100% 30.04 in 0.2 mi Calm Calm - N/A Fog Fog
7:35 AM 32.0 °F - 32.0 °F 100% 30.05 in 0.2 mi Calm Calm - N/A Fog Light Freezing Fog
7:55 AM 32.0 °F - 32.0 °F 100% 30.06 in 2.0 mi Calm Calm - N/A   Clear
8:15 AM 33.8 °F - 33.8 °F 100% 30.06 in 9.0 mi Calm Calm - N/A   Clear
8:35 AM 35.6 °F - 35.6 °F 100% 30.07 in 10.0 mi Calm Calm - N/A   Clear
8:55 AM 39.2 °F - 39.2 °F 100% 30.08 in 10.0 mi Calm Calm - N/A   Clear
9:15 AM 41.0 °F 37.1 °F 39.2 °F 93% 30.08 in 10.0 mi SW 5.8 mph - N/A   Clear
9:35 AM 42.8 °F 38.6 °F 39.2 °F 87% 30.08 in 10.0 mi SW 6.9 mph - N/A   Clear
9:55 AM 44.6 °F 40.7 °F 39.2 °F 81% 30.08 in 9.0 mi SSW 6.9 mph - N/A   Clear
10:15 AM 44.6 °F 43.1 °F 41.0 °F 87% 30.08 in 10.0 mi South 3.5 mph - N/A   Clear
10:35 AM 46.4 °F 44.3 °F 41.0 °F 81% 30.07 in 10.0 mi SSW 4.6 mph - N/A   Clear
10:55 AM 48.2 °F - 39.2 °F 71% 30.07 in 10.0 mi Calm Calm - N/A   Clear
11:15 AM 48.2 °F - 39.2 °F 71% 30.06 in 10.0 mi SSW 5.8 mph - N/A   Clear
11:35 AM 50.0 °F - 39.2 °F 66% 30.06 in 10.0 mi Variable 3.5 mph - N/A   Clear
11:55 AM 50.0 °F - 39.2 °F 66% 30.05 in 10.0 mi Variable 5.8 mph - N/A   Clear
12:15 PM 51.8 °F - 37.4 °F 58% 30.04 in 10.0 mi SSE 5.8 mph - N/A   Clear
12:35 PM 51.8 °F - 39.2 °F 62% 30.03 in 10.0 mi SW 8.1 mph - N/A   Clear
12:55 PM 53.6 °F - 39.2 °F 58% 30.03 in 10.0 mi WSW 8.1 mph - N/A   Clear
1:35 PM 53.6 °F - 39.2 °F 58% 30.02 in 10.0 mi Variable 4.6 mph - N/A   Clear
1:55 PM 53.6 °F - 37.4 °F 54% 30.01 in 10.0 mi Variable 4.6 mph - N/A   Clear
2:15 PM 55.4 °F - 37.4 °F 51% 30.00 in 10.0 mi SSW 3.5 mph - N/A   Clear
2:35 PM 55.4 °F - 37.4 °F 51% 29.99 in 10.0 mi SSW 5.8 mph - N/A   Clear
2:55 PM 55.4 °F - 37.4 °F 51% 29.99 in 10.0 mi SE 5.8 mph - N/A   Clear
3:15 PM 55.4 °F - 37.4 °F 51% 29.98 in 10.0 mi Variable 4.6 mph - N/A   Clear
3:35 PM 55.4 °F - 37.4 °F 51% 29.97 in 10.0 mi SE 5.8 mph - N/A   Clear
3:55 PM 57.2 °F - 37.4 °F 48% 29.97 in 10.0 mi SSE 6.9 mph - N/A   Clear
4:15 PM 57.2 °F - 37.4 °F 48% 29.96 in 10.0 mi Variable 6.9 mph - N/A   Clear
4:35 PM 57.2 °F - 37.4 °F 48% 29.96 in 10.0 mi SE 8.1 mph - N/A   Clear
4:55 PM 57.2 °F - 35.6 °F 44% 29.96 in 10.0 mi SE 9.2 mph - N/A   Clear
5:15 PM 57.2 °F - 35.6 °F 44% 29.96 in 10.0 mi SSE 8.1 mph - N/A   Clear
5:35 PM 55.4 °F - 37.4 °F 51% 29.96 in 9.0 mi SSE 5.8 mph - N/A   Clear
5:55 PM 53.6 °F - 37.4 °F 54% 29.96 in 10.0 mi SSE 5.8 mph - N/A   Clear
6:15 PM 51.8 °F - 39.2 °F 62% 29.95 in 10.0 mi SSE 5.8 mph - N/A   Clear
6:35 PM 50.0 °F - 37.4 °F 62% 29.95 in 8.0 mi SE 6.9 mph - N/A   Clear
6:55 PM 48.2 °F - 37.4 °F 66% 29.95 in 10.0 mi SE 5.8 mph - N/A   Clear
7:15 PM 46.4 °F 43.5 °F 37.4 °F 71% 29.95 in 10.0 mi SE 5.8 mph - N/A   Clear
7:35 PM 44.6 °F 41.4 °F 39.2 °F 81% 29.95 in 10.0 mi SE 5.8 mph - N/A   Clear
7:55 PM 44.6 °F 40.7 °F 39.2 °F 81% 29.95 in 10.0 mi SE 6.9 mph - N/A   Clear
8:15 PM 44.6 °F 41.4 °F 39.2 °F 81% 29.95 in 10.0 mi SE 5.8 mph - N/A   Clear
8:35 PM 42.8 °F 38.6 °F 39.2 °F 87% 29.96 in 10.0 mi ESE 6.9 mph - N/A   Clear
8:55 PM 42.8 °F 38.6 °F 39.2 °F 87% 29.95 in 10.0 mi SE 6.9 mph - N/A   Clear
9:15 PM 44.6 °F 40.7 °F 39.2 °F 81% 29.95 in 10.0 mi SE 6.9 mph - N/A   Clear
9:35 PM 42.8 °F 38.0 °F 39.2 °F 87% 29.96 in 10.0 mi SE 8.1 mph - N/A   Clear
9:55 PM 44.6 °F 40.2 °F 39.2 °F 81% 29.96 in 10.0 mi SE 8.1 mph - N/A   Clear
10:15 PM 42.8 °F 38.6 °F 39.2 °F 87% 29.97 in 10.0 mi SSE 6.9 mph - N/A   Clear
10:35 PM 42.8 °F 38.6 °F 39.2 °F 87% 29.97 in 10.0 mi SSE 6.9 mph - N/A   Clear
10:55 PM 41.0 °F 36.4 °F 39.2 °F 93% 29.97 in 10.0 mi SE 6.9 mph - N/A   Clear
11:15 PM 41.0 °F 36.4 °F 39.2 °F 93% 29.97 in 10.0 mi SSE 6.9 mph - N/A   Clear
11:35 PM 41.0 °F 35.8 °F 39.2 °F 93% 29.97 in 10.0 mi SSE 8.1 mph - N/A   Clear
11:55 PM 41.0 °F 35.8 °F 39.2 °F 93% 29.97 in 10.0 mi SE 8.1 mph - N/A   Clear